Location: Colle San Luigi
(43.5500°N, 13.4167°E)
Time: 22:53:15
(UTC+00:00)

STARLINK-1241 - Pass Details

Date: 09 April 2020
Orbit: 548 x 551 km, 53.0° (Epoch: 05 June)

Event Time Altitude Azimuth Distance (km) Brightness Sun altitude
Rises 20:02:37 0° 305° (NW) 2,730 8.6 -23.6°
Reaches altitude 10° 20:04:52 10° 307° (NW) 1,833 7.4 -23.9°
Enters shadow 20:08:37 67° 341° (NNW) 599 3.8 -24.4°
